Regional Weather Roundup
Issued by NWS

Home | Current Version | Previous Version | Text Only | Print | Product List | Glossary On
Versions: 1 2 3 4 5 6 7 8 9 10 11 12 13 14 15 16 17 18 19 20 21 22 23 24 25 26 27 28 29 30 31 32 33 34 35 36 37 38 39 40 41 42 43 44 45 46 47 48 49 50
000
ASUS45 KABQ 020010
RWRNM
WEATHER ROUNDUP FOR NEW MEXICO
NATIONAL WEATHER SERVICE ALBUQUERQUE NM
600 PM MDT WED OCT 01 2014

NOTE: "FAIR" MEANS FEW OR NO CLOUDS BELOW 12,000 FEET AGL WITH NO
       SIGNIFICANT WEATHER OR OBSTRUCTIONS TO VISION.

      THIS PRODUCT IS RELEASED AS TWO VERSIONS.  ONE VERSION NEAR
      THE TOP OF THE HOUR CONTAINING PRELIMINARY DATA FROM ALBUQUERQUE
      AND OTHER STATIONS.  A FINAL VERSION WITH ADDITIONAL DATA IS
      ISSUED ABOUT 10 MINUTES AFTER THE HOUR.

NMZ501-503-504-510>518-020100-
NORTHWEST PLATEAU/NORTHCENTRAL MOUNTAINS

CITY           SKY/WX    TMP DP  RH WIND       PRES   REMARKS
FARMINGTON     SUNNY     65  33  30 NW18G25   29.94R
6HR MIN TEMP:  63; 6HR MAX TEMP:  70;

LOS ALAMOS     PTCLDY    63  28  27 W16       30.01R
SANTA FE       PTCLDY    70  24  17 W18G24    29.93R
6HR MIN TEMP:  66; 6HR MAX TEMP:  73;

TAOS           PTCLDY    63  27  25 NW20G28   29.98R
ANGEL FIRE     FAIR      57  24  27 W15G32    30.02R

$$
NMZ402-403-502-505>509-020100-
WESTCENTRAL MOUNTAINS/SOUTHWEST MOUNTAINS

CITY           SKY/WX    TMP DP  RH WIND       PRES   REMARKS
GALLUP         PTSUNNY   67  29  24 W16       30.00R
6HR MIN TEMP:  63; 6HR MAX TEMP:  70;

GRANTS         MOSUNNY   66  27  22 W12G18    30.01R
SILVER CITY    SUNNY     73  28  19 W18       29.99S

$$
NMZ407-409-411-412-020100-
SOUTHERN DESERTS

CITY           SKY/WX    TMP DP  RH WIND       PRES   REMARKS
LORDSBURG      FAIR      79  32  18 MISG      29.91S
DEMING         SUNNY     79  29  16 W16G23    29.90R
6HR MIN TEMP:  75; 6HR MAX TEMP:  81;

LAS CRUCES     SUNNY     79  26  14 W18G24    29.91S
HOLLOMAN AFB   CLEAR     81  31  16 SW13      29.85R
ALAMOGORDO     CLEAR     79  32  18 SW10      29.88R
T OR C         SUNNY     80  31  16 SE12      29.85F
6HR MIN TEMP:  73; 6HR MAX TEMP:  81;


$$
NMZ519>523-020100-
CENTRAL VALLEYS/CENTRAL HIGHLANDS

CITY           SKY/WX    TMP DP  RH WIND       PRES   REMARKS
ALBUQUERQUE    PTCLDY    76  27  16 W14       29.89R
6HR MIN TEMP:  67; 6HR MAX TEMP:  78;

DOUBLE EAGLE   PTCLDY    73  28  19 SW18      29.91S
MORIARTY ARPT  FAIR      69  28  22 SW9       29.95S
6HR MIN TEMP:  69; 6HR MAX TEMP:  74;

CLINES CORNERS PTCLDY    66  27  23 W20G28    29.97R
6HR MIN TEMP:  65; 6HR MAX TEMP:  70;

BELEN          FAIR      77  28  16 W16       29.88R
6HR MIN TEMP:  69; 6HR MAX TEMP:  80;

SOCORRO        FAIR      78  32  18 S13       29.87R
6HR MIN TEMP:  71; 6HR MAX TEMP:  80;


$$
NMZ524>526-539-540-020100-
SOUTHCENTRAL MOUNTAINS

CITY           SKY/WX    TMP DP  RH WIND       PRES   REMARKS
RUIDOSO        NOT AVBL

$$
NMZ527>531-020100-
NORTHEAST HIGHLANDS/NORTHEAST PLAINS

CITY           SKY/WX    TMP DP  RH WIND       PRES   REMARKS
LAS VEGAS      PTCLDY    66  29  24 SW18      29.95R
6HR MIN TEMP:  66; 6HR MAX TEMP:  70;

RATON          MOCLDY    67  33  28 NW9       29.86R
6HR MIN TEMP:  65; 6HR MAX TEMP:  74;

CLAYTON        CLEAR     72  33  24 S13       29.83S
6HR MIN TEMP:  72; 6HR MAX TEMP:  76;


$$
NMZ532>537-020100-
EASTCENTRAL PLAINS

CITY           SKY/WX    TMP DP  RH WIND       PRES   REMARKS
TUCUMCARI      CLEAR     80  36  20 S9        29.77S
6HR MIN TEMP:  75; 6HR MAX TEMP:  84;

CANNON AFB     CLEAR     78  36  22 SW12      29.84R
6HR MIN TEMP:  75; 6HR MAX TEMP:  82;

CLOVIS AIRPORT   N/A     77  39  25 SW9       29.85R

$$
NMZ028-029-538-020100-
SOUTHEAST PLAINS

CITY           SKY/WX    TMP DP  RH WIND       PRES   REMARKS
ROSWELL        CLEAR     82  48  30 E7        29.78S
6HR MIN TEMP:  75; 6HR MAX TEMP:  84;

CARLSBAD       CLEAR     83  41  22 SW9       29.79R
6HR MIN TEMP:  80; 6HR MAX TEMP:  87;

HOBBS          CLEAR     81  46  30 S10       29.84R


$$



USA.gov is the U.S. government's official web portal to all federal, state and local government web resources and services.